EHI
7 15 22 24 21 18 19 21 22 22 22 21 18 13 8 4 3 2 1 1 3 3 2 1 1 1 1 0 0 0 0 0 0 0 0 0 0 0 0 0 0 0 0
10 18 27 28 24 21 21 22 22 22 22 22 20 17 11 5 3 2 2 2 3 2 1 0 0 0 0 0 0 0 0 0 0 0 0 0 0 0 0 0 0 0 0
14 21 29 31 29 26 24 23 22 22 22 22 22 20 14 8 4 4 3 2 2 1 0 0 0 0 0 0 0 0 0 0 0 0 0 0 0 0 0 0 0 0 0
16 21 27 32 32 29 25 23 22 21 21 22 21 19 15 10 7 5 3 1 1 0 0 0 0 0 0 0 0 0 0 0 0 0 0 0 0 0 0 0 0 0 0
14 19 25 31 32 29 25 23 22 21 21 21 19 16 13 11 9 5 2 1 0 0 0 0 0 0 0 0 0 0 0 0 0 0 0 0 0 0 0 0 0 0 0
12 15 21 28 31 27 24 22 21 20 19 19 17 14 12 10 7 4 2 1 1 0 0 0 0 0 0 0 0 0 0 0 0 0 0 0 0 0 0 0 0 0 0
11 13 17 25 29 27 23 20 18 18 17 16 15 12 10 7 4 3 2 2 1 0 0 0 0 0 0 0 0 0 0 0 0 0 0 0 0 0 0 0 0 0 0
11 12 15 22 26 25 21 19 17 17 17 15 12 9 6 4 3 3 3 3 2 0 0 0 0 0 0 0 0 0 0 0 0 0 0 0 0 0 0 0 0 0 0
11 11 14 17 21 21 20 18 16 16 15 13 10 6 4 3 3 3 3 3 2 1 1 0 0 0 0 0 0 0 0 0 0 0 0 0 0 0 0 0 0 0 0
8 9 11 14 16 18 18 16 14 12 11 9 7 6 4 3 3 3 3 3 3 2 1 0 0 0 0 0 0 0 0 0 0 0 0 0 0 0 0 0 0 0 0
5 6 8 11 14 16 15 13 10 8 7 6 6 6 5 4 3 3 3 3 3 2 1 0 0 0 0 0 0 0 0 0 0 0 0 0 0 0 0 0 0 0 0
3 4 5 8 11 12 12 11 9 6 5 5 6 5 4 3 3 3 2 2 2 1 0 0 0 0 0 0 0 0 0 0 0 0 0 0 0 0 0 0 0 0 0
3 3 3 6 7 8 9 10 9 7 4 4 4 4 3 3 3 2 2 1 1 0 0 0 0 0 0 0 0 0 0 0 0 0 0 0 0 0 0 0 0 0 0
2 2 2 3 3 4 6 8 9 6 4 3 3 3 3 3 2 1 1 0 0 0 0 0 0 0 0 0 0 0 0 0 0 0 0 0 0 0 0 0 0 0 0
1 1 1 1 1 3 4 6 7 6 4 3 3 3 2 1 1 0 0 0 0 0 0 0 0 0 0 0 0 0 0 0 0 0 0 0 0 0 0 0 0 0 0
0 0 0 0 1 2 3 4 5 6 5 4 3 1 1 0 0 0 0 0 0 0 0 0 0 0 0 0 0 0 0 0 0 0 0 0 0 0 0 0 0 0 0
0 0 0 0 0 1 1 2 4 5 5 3 2 1 0 0 0 0 0 0 0 0 0 0 0 0 0 0 0 0 0 0 0 0 0 0 0 0 0 0 0 0 0
0 0 0 0 0 0 0 1 1 3 3 1 1 0 0 0 0 0 0 0 0 0 0 0 0 0 0 0 0 0 0 0 0 0 0 0 0 0 0 0 0 0 0
0 0 0 0 0 1 1 0 0 1 1 0 0 0 0 0 0 0 0 0 0 0 0 0 0 0 0 0 0 0 0 0 0 0 0 0 0 0 0 0 0 0 0
0 0 0 0 0 1 1 0 0 0 0 0 0 0 0 0 0 0 0 0 0 0 0 0 0 0 0 0 0 0 0 0 0 0 0 0 0 0 0 0 0 0 0
0 0 0 0 0 1 1 0 0 0 0 0 0 0 0 0 0 0 0 0 0 0 0 0 0 0 0 0 0 0 0 0 0 0 0 0 0 0 0 0 0 0 0
0 0 0 0 0 0 0 0 0 0 0 0 0 0 0 0 0 0 0 0 0 0 0 0 0 0 0 0 0 0 0 0 0 0 0 0 0 0 0 0 0 0 0
0 0 0 0 0 0 0 0 0 0 0 0 0 0 0 0 0 0 0 0 0 0 0 0 0 0 0 0 0 0 0 0 0 0 0 0 0 0 0 0 0 0 0
0 0 0 0 0 0 0 0 0 0 0 0 0 0 0 0 0 0 0 0 0 0 0 0 0 0 0 0 0 0 0 0 0 0 0 0 0 0 0 0 0 0 0
0 0 0 0 0 0 0 0 0 0 0 0 0 0 0 0 0 0 0 0 0 0 0 0 0 0 0 0 0 0 0 0 0 0 0 0 0 0 0 0 0 0 0
0 0 0 0 0 0 0 0 0 0 0 0 0 0 0 0 0 0 0 0 0 0 0 0 0 0 0 0 0 0 0 0 0 0 0 0 0 0 0 0 0 0 0
Wind_Speed
3 4 8 10 11 11 11 11 11 11 10 10 10 10 10 10 10 9 9 9 8 8 8 8 8 8 7 7 7 7 7 7 7 7 6 5 5 5 5 5 5 3 5
5 6 10 11 11 11 11 11 11 10 10 10 10 10 9 9 9 9 9 8 8 8 7 7 7 7 7 7 7 6 7 7 6 6 5 4 4 4 4 4 4 3 4
6 6 9 11 11 11 11 11 11 10 10 9 9 9 8 8 8 8 8 8 7 7 7 7 6 6 6 6 6 6 6 6 6 6 6 3 2 3 3 2 3 3 3
7 6 7 11 11 11 11 10 10 10 9 9 9 9 8 8 8 8 7 7 7 7 6 6 6 6 5 5 5 5 6 6 5 6 4 2 2 2 2 2 2 2 2
6 5 7 11 11 11 10 10 10 9 9 9 9 8 8 8 8 8 7 7 7 7 7 6 6 6 5 5 5 5 5 6 6 4 3 3 2 2 2 1 1 1 2
5 4 7 11 11 10 10 9 9 9 8 8 8 8 7 7 7 7 7 7 7 6 6 6 6 6 5 5 5 5 5 5 5 3 2 2 2 2 2 2 1 0 1
6 4 6 11 11 10 9 9 9 8 8 8 7 7 7 7 7 7 7 6 6 6 5 5 5 5 6 5 5 5 5 5 4 3 2 2 2 2 2 3 2 1 1
6 5 5 9 10 10 9 9 8 8 8 7 7 7 7 6 6 6 6 6 6 5 5 5 4 5 5 5 5 5 5 5 4 3 2 2 2 2 2 2 3 2 1
5 5 4 4 6 8 9 8 8 8 7 7 7 6 6 6 6 6 6 5 5 5 4 4 4 4 5 5 5 5 6 6 4 2 2 2 3 3 3 3 3 3 2
4 4 4 4 4 4 5 8 8 7 7 7 7 6 6 6 6 6 5 5 5 4 4 4 4 4 5 5 5 5 6 5 3 2 2 2 4 4 4 4 4 4 4
3 3 3 4 4 3 4 5 6 6 6 6 5 6 6 3 3 3 4 5 5 5 4 4 4 5 5 5 5 5 5 2 2 2 2 4 5 6 5 5 5 5 5
4 3 2 3 4 3 3 3 3 3 3 3 3 3 2 2 2 3 4 5 5 5 5 5 5 5 5 2 3 4 1 1 1 2 2 6 6 6 6 6 6 6 6
5 3 2 3 3 4 3 3 2 2 2 2 3 3 2 2 2 2 1 2 2 3 2 3 4 2 1 1 1 1 1 1 1 2 3 6 7 7 7 7 7 7 7
5 4 3 3 3 3 3 3 2 2 1 1 1 2 2 1 1 1 1 1 1 1 1 1 1 2 2 1 1 1 1 1 1 1 2 6 7 7 7 7 7 7 8
4 4 3 3 3 3 3 2 2 2 2 1 1 1 2 2 1 1 0 1 1 1 1 1 1 1 2 2 2 2 2 2 2 2 2 6 7 7 7 8 8 9 9
5 5 4 4 3 3 3 2 2 2 2 2 1 1 2 2 1 1 1 0 0 0 0 0 0 1 1 1 2 2 2 2 2 2 2 4 6 7 8 8 9 9 10
5 5 4 4 3 4 3 3 2 2 2 2 1 1 1 2 2 1 1 1 1 0 0 0 1 1 1 2 2 3 2 2 2 3 3 2 3 6 8 8 9 10 10
4 4 4 4 4 3 3 3 2 2 2 2 1 1 1 1 2 1 1 1 1 0 0 0 0 1 1 1 2 3 2 2 3 3 3 2 2 3 5 8 9 10 10
5 5 4 4 4 4 3 2 2 2 1 1 1 1 1 1 2 1 1 1 1 0 0 0 0 0 1 2 2 2 2 2 3 3 3 3 3 3 3 5 8 9 10
3 4 4 4 4 3 2 2 1 1 1 1 1 1 1 1 1 1 1 1 1 1 0 0 0 1 1 1 2 3 3 3 2 2 3 3 3 3 3 3 4 5 9
3 3 4 4 3 4 3 2 2 1 1 1 1 1 1 1 1 1 1 1 1 1 1 1 0 1 1 1 1 3 3 2 2 2 2 2 3 3 2 3 3 3 4
4 4 4 4 4 4 3 3 2 2 1 1 1 1 1 1 1 1 1 1 1 1 1 1 0 0 1 1 0 1 3 3 2 2 2 2 3 2 3 3 3 3 3
3 4 4 4 4 4 3 2 2 2 2 1 0 1 1 1 1 1 2 1 1 1 2 2 2 1 1 1 0 1 0 2 4 2 2 2 2 2 3 3 3 4 4
3 3 3 4 4 3 4 4 4 3 2 2 2 1 2 1 1 1 1 1 1 1 2 2 2 1 2 1 1 1 2 2 2 3 3 2 3 3 3 3 4 4 4
2 2 2 3 3 3 3 4 4 3 2 1 1 1 1 1 1 1 1 1 2 2 2 2 1 2 2 2 1 1 1 1 2 2 4 4 4 3 2 3 3 3 4
1 1 2 2 2 3 3 3 3 3 2 2 1 1 1 1 1 1 1 1 2 2 2 2 2 2 2 2 2 1 1 1 2 2 3 4 5 4 3 2 3 3 3
Wind_Direction
175 170 150 138 131 124 118 114 110 106 103 101 101 100 98 97 96 93 89 87 85 83 80 77 74 72 70 68 70 64 63 68 69 65 67 76 83 85 88 89 91 91 100
151 156 146 136 130 125 121 117 112 107 103 101 102 101 99 97 96 92 87 83 81 80 78 77 75 72 69 66 66 65 64 62 59 58 59 65 73 83 94 98 106 102 101
135 144 143 134 129 124 121 117 113 109 106 103 101 100 98 97 94 91 86 82 78 76 72 69 69 69 67 66 65 65 64 63 59 55 50 44 55 80 86 92 105 105 103
134 133 136 132 127 123 121 118 116 112 108 104 101 99 98 96 93 89 85 81 78 73 69 65 62 61 64 66 67 66 62 62 59 53 39 31 25 66 71 69 85 99 102
124 124 133 130 126 123 122 120 117 113 109 105 102 100 98 94 90 85 79 76 76 71 66 61 58 54 55 60 64 67 62 54 53 47 37 29 17 34 38 41 63 99 116
114 117 131 128 125 123 121 120 118 114 110 107 104 101 97 92 87 82 77 72 69 68 65 60 55 52 52 55 56 58 55 47 48 42 32 18 6 8 4 5 7 56 149
117 113 127 125 125 123 121 119 117 115 112 109 106 102 97 91 86 81 77 72 67 64 62 59 55 52 51 49 48 46 49 47 51 39 17 2 348 358 356 358 354 356 336
121 112 122 125 124 123 122 119 116 113 110 107 103 100 95 93 88 84 79 74 69 64 59 55 53 51 47 45 42 40 43 45 39 24 357 340 325 332 330 336 339 317 297
112 110 108 119 125 125 121 117 114 111 108 103 99 94 90 86 85 83 77 73 68 62 56 52 49 45 43 41 36 36 39 36 33 9 342 323 325 322 315 305 311 306 291
96 103 108 106 109 117 123 115 112 109 105 101 95 88 85 81 77 73 66 64 63 58 52 49 46 43 39 35 31 34 33 29 23 1 334 314 318 313 313 307 294 294 287
107 96 108 112 111 111 116 112 112 110 104 97 90 82 78 72 70 67 58 60 60 56 49 44 43 41 37 35 33 31 27 22 4 340 317 317 313 308 304 304 305 295 289
157 146 124 127 124 119 113 108 104 98 100 94 93 90 81 72 63 62 57 57 55 53 48 42 42 44 39 34 28 26 21 0 352 317 310 317 313 309 308 307 304 304 298
165 157 146 139 131 126 122 116 105 96 94 93 95 96 91 76 64 57 59 46 42 46 43 34 34 30 28 24 12 1 347 342 318 300 302 310 310 309 309 308 307 305 302
161 168 155 143 137 134 130 131 127 119 114 112 115 109 108 100 81 72 69 58 54 48 41 33 32 11 8 360 348 339 329 314 298 295 299 316 311 309 311 311 311 306 304
173 177 170 157 154 146 136 139 131 138 143 146 136 127 125 130 130 117 94 72 55 54 55 29 20 5 359 348 336 333 318 306 300 295 301 317 317 313 311 310 308 305 302
184 185 174 167 165 151 149 149 153 154 151 144 147 156 144 143 152 154 145 115 59 37 16 351 329 343 328 327 327 321 309 301 297 297 296 311 317 315 313 311 310 309 307
185 178 176 173 160 157 155 155 151 163 154 155 162 169 164 158 168 168 168 189 223 244 354 13 350 356 341 338 324 313 306 298 297 298 298 294 304 314 313 312 311 310 309
177 174 178 171 161 163 157 154 154 160 155 161 165 173 182 184 173 163 178 217 217 193 180 181 314 347 331 324 314 309 306 301 297 291 291 292 291 296 305 310 311 311 311
182 174 171 167 165 167 157 146 144 144 152 162 167 176 186 187 177 170 193 219 194 193 220 247 355 316 305 317 309 305 302 295 291 296 296 292 286 285 282 308 315 314 312
178 171 167 162 162 151 134 114 102 103 131 152 178 191 184 188 183 165 181 188 174 177 247 221 271 315 279 289 312 315 300 291 291 289 288 290 285 286 288 291 299 308 311
158 165 172 163 162 152 144 148 151 180 198 200 210 198 190 191 186 164 182 188 180 192 218 227 251 329 321 325 349 326 314 297 296 286 289 296 298 296 299 298 294 290 300
177 176 173 176 172 173 174 168 165 163 189 201 212 213 203 200 196 190 186 206 204 194 206 213 166 314 311 359 54 344 333 331 328 308 300 294 301 304 305 310 304 299 293
184 187 184 184 176 173 158 132 95 75 55 53 295 278 258 231 213 208 203 206 213 196 212 226 209 200 249 297 162 153 276 285 311 307 304 299 300 300 300 305 303 300 299
206 193 185 181 170 164 154 158 156 164 181 202 204 227 256 234 222 215 209 211 212 217 221 231 226 215 204 251 289 239 227 233 274 309 311 310 303 301 301 310 308 302 300
196 178 181 166 161 154 160 166 167 172 185 180 172 210 238 251 233 231 221 220 217 222 229 233 237 221 209 219 229 245 264 271 241 258 297 316 324 313 308 303 303 306 309
127 131 130 142 159 157 157 160 168 170 164 156 190 203 231 264 250 246 238 234 231 227 229 232 232 226 231 230 237 228 221 228 242 245 274 302 312 315 320 318 319 320 320